Temperature
21 21 21 21 21 22 23 24 24 24 25 25 25 24 23 22 21 19 18 18 18 18 18 18 18 17 17 17 17 17 17 17 17 17 17 17 17 17 17 17 17 17 18 18 18 18 18 17 17
21 21 21 22 22 22 23 24 24 24 25 24 24 24 23 21 20 19 18 18 18 17 17 18 18 17 17 17 17 17 17 17 17 17 17 17 17 17 17 17 17 17 17 17 17 17 17 17 17
21 21 22 22 23 23 23 24 24 25 25 25 24 23 22 21 20 19 18 18 18 17 17 17 17 17 17 17 17 17 17 17 17 17 17 17 17 17 17 17 17 17 17 17 17 17 17 17 17
21 22 23 23 23 24 24 24 25 25 25 24 24 22 20 20 19 18 18 18 18 17 17 17 17 17 17 17 17 17 17 17 17 17 17 17 17 17 17 17 17 17 17 17 17 17 17 17 17
22 22 23 23 24 25 25 25 25 25 25 24 23 21 20 19 19 18 18 18 17 17 17 17 17 17 17 17 17 17 17 17 17 17 17 17 17 17 17 17 17 17 17 17 17 17 17 17 17
23 23 23 23 23 24 25 25 25 25 24 24 23 21 19 19 19 18 18 18 17 17 17 17 17 17 17 17 17 17 17 17 17 17 17 17 17 17 17 17 17 17 17 17 17 17 17 17 17
23 23 23 23 23 24 25 25 25 25 24 23 23 21 19 19 19 18 18 18 17 17 17 17 17 17 17 17 17 17 16 16 16 16 17 17 17 17 17 17 16 17 17 17 17 17 17 17 17
23 23 23 23 23 23 25 25 24 24 23 23 23 22 19 19 18 18 18 18 18 17 17 17 17 17 17 17 17 16 16 16 16 16 16 16 16 16 16 16 16 16 16 17 17 17 16 16 16
23 23 23 23 23 23 24 24 24 23 23 22 22 21 20 19 18 18 18 18 18 17 17 17 17 17 16 16 16 16 16 16 16 16 16 16 16 16 16 16 16 16 16 16 16 16 16 16 16
24 22 23 24 25 24 24 24 24 24 23 22 21 20 19 19 19 18 18 18 18 18 17 17 17 17 17 16 16 16 16 16 16 16 16 16 16 16 16 16 16 16 16 16 16 16 16 16 16
24 23 24 25 24 24 24 24 24 24 23 22 21 20 19 19 19 19 18 18 18 18 18 17 17 17 17 16 16 16 16 16 16 16 16 16 16 16 16 16 16 16 16 16 16 16 16 16 16
25 24 24 24 24 24 24 24 23 23 22 22 21 20 20 19 19 19 19 18 18 18 17 17 17 17 17 16 16 16 16 16 16 16 16 16 16 16 16 16 16 16 16 16 16 16 16 16 16
24 24 24 24 24 24 24 24 23 22 22 22 21 20 20 19 19 19 19 18 18 18 17 17 17 17 17 17 16 16 16 16 16 16 16 16 16 16 16 15 15 15 15 15 15 15 15 15 15
25 24 24 24 24 24 24 24 23 22 22 22 21 20 20 20 20 19 19 19 18 18 17 17 17 17 17 17 16 16 16 16 16 16 16 16 16 16 16 15 15 15 15 15 15 15 15 15 15
25 24 24 24 24 24 24 23 23 23 22 22 21 20 20 20 19 19 19 19 18 18 18 17 17 17 17 17 16 16 16 16 16 16 16 16 16 16 16 15 15 15 15 15 15 15 15 15 15
25 24 23 24 25 24 23 22 23 23 22 22 21 21 20 20 20 19 19 19 18 18 17 17 17 17 17 16 16 16 16 16 16 16 16 16 16 15 15 15 15 15 15 15 15 15 15 15 15
24 23 23 24 25 25 24 23 23 23 23 22 21 21 20 20 20 19 19 18 18 18 17 17 17 16 16 16 16 16 16 15 15 15 15 15 15 15 15 15 15 15 15 14 14 14 14 14 15
23 24 24 24 25 25 24 23 23 23 23 22 22 21 21 20 20 19 19 18 18 18 17 17 17 16 16 16 16 16 15 15 15 15 15 15 15 15 15 15 14 14 14 14 14 14 14 14 14
24 24 24 24 25 24 24 23 23 23 23 22 22 22 21 20 20 19 19 18 18 18 17 17 17 16 16 16 16 15 15 15 15 15 15 15 15 15 15 14 14 14 14 14 14 14 14 14 14
24 24 24 24 25 24 24 24 24 24 23 23 23 22 22 21 20 19 19 18 18 18 17 17 16 16 16 16 16 15 15 15 15 14 14 14 14 14 14 14 14 14 14 14 14 14 14 14 14
24 24 24 24 24 25 24 23 24 24 24 23 23 22 22 21 20 19 18 18 18 17 17 17 16 16 16 16 15 15 15 15 14 14 14 14 14 14 14 14 14 14 14 13 13 13 13 13 13
23 24 24 24 23 22 23 22 23 24 23 23 23 22 22 21 20 19 18 18 17 17 17 17 16 16 16 15 15 15 15 14 14 14 14 14 14 14 14 13 13 13 13 13 13 13 13 13 13
24 24 24 24 23 22 23 23 23 24 23 23 23 22 22 21 20 19 18 18 17 17 17 16 16 16 16 15 15 15 14 14 14 14 14 13 13 13 13 13 13 13 13 13 13 13 13 13 13
24 24 23 23 23 21 23 23 23 23 24 23 23 22 21 21 20 19 18 18 17 17 16 16 16 16 16 15 15 15 14 14 14 14 13 13 13 13 13 13 13 13 13 13 13 13 13 12 12
24 22 21 21 21 22 24 24 23 24 24 24 23 22 21 20 20 19 18 18 17 17 16 16 16 16 15 15 15 15 14 14 14 14 13 13 13 13 13 13 13 13 12 12 12 12 12 12 12
23 23 21 21 21 23 24 23 23 24 24 23 23 22 21 20 19 19 18 17 17 16 16 16 15 15 15 15 15 14 14 14 14 13 13 13 13 13 13 12 12 12 12 12 12 12 12 12 12
23 23 24 22 22 22 23 23 23 24 23 23 22 21 21 20 19 19 18 17 17 16 16 16 15 15 15 15 14 14 14 14 14 13 13 13 13 13 12 12 12 12 12 12 12 12 12 12 11
24 23 23 22 21 21 22 23 22 22 22 22 22 21 20 20 19 18 18 17 17 16 16 15 15 15 15 14 14 14 14 14 14 13 13 13 13 13 12 12 12 12 12 11 11 11 11 11 11
23 23 22 22 21 21 20 21 23 22 22 22 22 21 20 19 19 18 18 17 17 16 16 15 15 15 14 14 14 14 14 14 14 13 13 13 13 12 12 12 12 12 11 11 11 11 11 11 11
23 23 22 20 21 21 20 21 23 23 23 22 21 21 20 19 19 18 17 17 16 16 15 15 15 14 14 14 14 14 14 13 13 13 13 12 12 12 12 12 11 11 11 11 11 11 11 10 10
Wind_Speed
9 9 6 2 2 1 2 5 7 6 6 8 9 10 12 12 8 8 3 5 9 10 11 11 11 11 11 12 12 12 11 11 11 11 11 12 11 11 11 10 11 11 11 11 11 11 11 11 10
8 6 4 3 2 1 4 6 8 8 8 7 8 11 12 11 10 8 5 6 9 11 12 12 11 11 11 11 11 12 12 11 11 12 12 12 11 11 11 11 11 11 11 11 11 11 11 10 10
10 7 3 2 0 2 5 7 9 8 6 6 7 9 8 7 9 6 6 7 10 11 12 12 11 11 11 11 11 11 11 12 12 12 12 12 12 12 12 12 11 11 11 11 11 11 10 10 9
5 3 3 1 2 5 7 8 7 8 6 6 8 8 7 7 6 8 8 8 10 11 13 12 12 11 11 11 11 11 11 12 12 12 12 12 12 12 12 12 12 11 11 11 11 11 10 9 9
4 3 2 1 2 5 7 7 6 6 6 7 9 10 8 8 10 10 8 9 10 10 11 12 12 12 11 11 11 11 12 12 11 12 12 12 12 11 11 12 11 11 11 11 10 10 9 9 8
3 3 2 2 4 5 5 5 5 7 7 8 9 9 6 8 9 8 8 8 9 10 10 11 11 11 11 11 11 11 11 11 11 11 11 11 11 11 11 11 11 11 10 10 10 9 9 8 7
3 3 1 3 5 5 4 4 5 6 7 6 6 8 7 8 7 7 8 8 8 9 9 9 10 10 11 11 10 11 10 10 10 10 9 10 10 10 10 11 10 10 10 10 9 8 7 7 6
3 2 1 2 4 4 4 4 5 6 6 5 4 6 7 9 8 7 7 7 7 8 7 7 8 9 10 10 10 10 9 8 8 8 7 7 8 9 9 9 8 8 8 8 7 7 7 6 4
3 2 0 2 3 4 5 5 5 5 6 6 7 9 11 12 10 8 7 6 5 6 6 6 6 7 8 9 9 8 7 6 6 6 5 4 5 6 8 8 8 7 6 6 5 4 4 3 2
2 1 2 3 4 5 5 5 4 4 6 6 9 11 12 11 9 9 7 6 6 5 5 5 6 6 6 6 7 5 6 4 4 4 3 2 5 6 7 8 7 6 4 3 2 1 1 1 1
0 2 3 4 5 4 4 4 2 2 3 5 9 11 11 10 8 8 7 6 6 5 4 5 6 5 5 4 4 3 4 3 2 3 4 5 6 5 6 5 5 4 3 2 1 2 1 1 2
2 3 3 3 4 3 2 3 2 3 4 6 9 10 9 8 8 7 7 7 6 6 5 4 5 5 5 4 3 3 2 2 2 3 4 4 2 2 2 2 3 2 2 1 1 1 1 3 4
2 2 3 4 3 2 2 3 3 3 4 7 9 10 9 8 7 7 7 7 7 6 4 5 5 4 5 4 3 3 2 2 3 3 3 4 2 2 2 2 2 3 3 2 1 2 4 4 4
3 3 3 3 3 2 2 3 3 4 5 7 8 8 7 6 6 7 7 6 7 6 4 4 4 5 5 4 3 3 4 3 4 3 3 5 4 2 2 3 3 3 3 3 2 3 3 3 3
4 4 4 4 4 3 3 3 4 6 7 7 7 7 7 6 6 6 7 6 6 7 5 4 4 5 5 4 3 3 3 3 2 2 4 5 5 3 3 3 3 2 4 4 3 4 3 3 3
7 7 5 4 5 4 4 3 4 6 7 7 7 7 7 6 7 7 7 6 6 6 6 5 4 6 4 3 3 3 3 3 3 4 5 6 6 5 4 3 3 4 4 3 3 3 3 3 3
6 5 4 4 6 5 6 3 5 7 7 7 7 7 8 8 7 7 7 6 6 7 7 6 4 5 4 4 3 3 3 3 3 4 4 5 5 6 5 3 2 4 3 3 3 3 2 2 2
3 3 3 4 5 6 5 4 5 8 7 7 8 8 8 8 8 8 7 7 6 6 7 7 5 4 4 3 3 3 3 2 4 4 4 5 5 6 5 3 3 4 3 3 3 2 2 1 1
5 5 4 2 2 3 5 6 6 8 8 7 7 8 8 8 9 9 8 7 6 6 6 7 6 5 3 3 2 3 2 2 3 2 4 4 5 6 4 3 2 3 3 2 2 2 2 1 1
7 6 5 2 2 4 6 8 6 8 9 8 7 8 8 9 9 9 9 7 6 6 6 7 7 6 5 3 3 2 2 2 3 2 3 4 4 4 3 3 2 3 2 3 3 2 2 2 1
7 5 5 4 5 7 7 8 7 7 8 8 8 7 7 8 8 9 9 8 7 6 6 6 6 6 5 4 3 2 2 2 2 2 2 2 3 4 4 3 2 2 2 1 1 2 2 1 2
6 4 6 6 6 6 6 5 6 7 8 9 8 7 7 7 8 8 8 8 7 6 6 6 6 6 6 5 4 4 3 2 2 2 2 1 2 3 2 2 1 1 2 2 1 2 1 1 1
5 5 7 8 8 9 10 8 5 7 9 9 8 8 7 7 7 8 8 7 6 6 5 5 6 6 6 6 5 4 3 2 2 2 3 2 1 2 2 2 2 1 2 1 2 2 2 1 1
5 6 8 9 8 9 11 7 3 4 6 8 8 7 7 7 7 7 8 7 6 6 5 4 5 5 5 6 5 4 4 3 3 3 3 2 1 1 1 1 1 1 1 1 1 1 1 1 2
6 6 4 4 6 6 5 4 2 4 4 6 7 7 7 6 7 7 7 8 7 7 6 5 5 5 5 6 6 5 5 4 4 3 3 2 2 1 2 1 1 1 1 1 1 1 0 0 1
7 8 5 3 3 3 3 3 3 6 6 7 7 6 6 6 6 6 7 8 7 7 7 6 6 5 5 5 5 5 5 3 3 3 3 3 2 2 2 2 2 2 1 1 1 0 0 0 0
7 8 8 7 9 7 4 2 4 7 8 7 6 6 5 5 6 6 6 7 7 7 6 6 5 5 5 4 4 4 5 4 4 3 3 3 3 2 2 2 2 2 2 2 2 0 0 0 1
9 8 5 4 4 5 4 3 3 8 9 7 6 6 5 5 5 6 6 6 7 7 6 6 5 5 4 4 4 4 4 4 4 4 4 4 3 3 3 3 2 2 2 2 1 1 0 1 0
8 8 6 5 6 4 4 1 3 6 7 7 6 5 5 5 4 4 5 6 6 6 6 5 5 5 4 4 4 4 4 4 4 3 4 4 3 3 3 3 2 3 3 2 2 2 2 2 2
7 8 7 5 6 5 5 2 4 6 6 5 4 5 5 4 4 4 4 5 5 6 5 5 5 4 4 4 4 4 4 4 4 3 3 4 4 4 3 2 2 3 3 3 3 3 2 2 2
Wind_Direction
272 254 245 251 264 202 83 77 78 75 65 54 56 67 65 51 57 94 123 86 95 101 99 89 78 75 71 72 71 71 76 78 77 75 75 75 73 73 74 78 80 79 77 74 70 68 63 58 57
270 266 259 237 250 136 88 89 86 73 82 78 64 68 72 66 74 98 106 91 97 95 94 90 83 80 76 73 72 73 77 78 78 75 73 73 71 70 75 81 80 80 77 74 73 70 64 59 56
259 263 262 246 297 76 96 92 100 92 87 89 80 63 58 70 79 98 112 108 96 93 93 93 88 83 80 77 74 74 76 77 78 76 74 72 71 73 77 81 82 80 77 74 73 69 65 61 59
261 258 244 234 56 74 98 107 114 115 96 80 88 80 67 59 80 106 112 101 97 97 97 98 93 90 86 82 77 76 75 78 79 78 73 71 70 74 78 79 78 78 75 73 71 68 63 57 52
239 252 221 143 95 75 88 108 112 104 99 88 86 93 87 78 94 104 101 96 96 97 100 101 97 94 90 86 81 79 79 78 80 80 76 72 71 73 78 80 79 78 77 76 71 67 63 58 51
269 256 226 147 112 92 84 91 97 97 99 96 100 104 96 103 99 102 104 100 102 104 105 103 102 102 96 91 86 83 82 81 84 84 80 76 77 80 80 82 81 80 79 77 75 72 69 62 54
271 273 242 130 117 107 96 84 82 88 85 84 103 105 116 110 108 111 108 101 104 107 109 114 116 110 104 97 92 89 88 88 91 90 89 87 83 86 89 85 83 81 80 79 76 73 74 68 60
284 293 272 125 125 112 100 92 80 76 80 73 86 113 131 133 129 123 112 103 104 110 114 120 123 122 119 112 103 100 98 99 102 103 102 103 100 95 95 91 92 90 88 89 86 81 75 71 65
270 273 8 80 110 120 119 108 94 95 97 86 73 93 124 134 138 130 117 113 111 113 120 129 127 118 118 122 115 118 114 112 121 125 131 130 123 116 105 97 99 95 95 99 99 97 100 94 73
223 3 34 60 96 122 122 111 121 131 112 104 99 102 123 139 143 138 138 137 128 121 122 124 115 112 113 114 123 131 123 126 129 129 141 131 107 101 102 111 118 111 108 109 122 168 188 191 195
146 59 50 59 83 109 117 104 90 113 108 117 126 131 137 141 142 143 141 135 127 121 116 116 116 112 111 108 114 103 109 120 116 106 100 90 96 108 114 125 132 142 140 141 178 209 232 133 101
138 104 88 92 94 115 115 112 80 62 76 102 123 134 140 144 149 154 149 144 134 124 124 120 114 118 113 108 107 101 89 93 75 71 81 87 87 78 102 111 126 130 121 135 114 121 60 46 67
142 124 120 111 126 133 135 121 107 95 98 110 123 134 144 152 154 149 142 141 134 130 131 117 115 118 117 108 106 101 79 72 80 66 70 81 74 58 68 80 71 68 75 63 43 60 57 41 40
135 143 160 161 155 160 167 159 158 144 140 134 136 143 150 152 149 145 139 139 137 139 134 116 121 113 105 111 118 109 96 81 65 50 54 71 76 67 51 59 56 54 54 45 52 58 64 59 55
184 194 196 188 187 181 200 211 185 157 152 145 150 154 150 153 152 148 144 150 144 143 135 123 119 104 101 101 100 94 102 96 80 48 47 64 68 73 71 59 53 45 53 47 49 50 51 54 54
216 214 209 190 197 185 222 238 168 160 166 161 162 162 159 160 161 154 148 147 143 142 137 135 135 117 112 100 89 77 75 73 64 51 39 51 55 60 66 62 45 44 47 42 37 45 42 37 40
230 227 207 185 203 203 219 226 171 174 182 174 173 172 167 167 166 157 153 155 152 151 149 145 129 120 119 114 102 81 80 70 68 58 38 40 47 53 66 57 45 55 47 36 30 40 40 34 30
254 258 217 202 196 210 226 229 193 182 195 192 183 182 176 175 172 165 162 158 154 157 152 141 133 127 126 115 109 96 88 85 75 66 46 35 41 51 64 55 37 60 49 29 29 39 22 37 7
268 273 271 236 195 213 244 240 209 193 193 204 196 185 180 179 174 166 163 155 156 156 150 141 144 142 129 114 108 102 98 90 79 72 65 50 42 45 57 58 42 53 60 40 40 45 24 11 11
260 266 268 264 247 246 250 252 220 200 197 200 199 191 187 179 173 164 164 163 166 163 158 152 154 150 137 126 128 131 124 121 118 94 70 64 59 50 57 59 74 65 49 32 41 42 24 350 10
254 266 279 280 287 275 264 259 222 200 196 190 195 190 186 178 172 166 170 170 169 166 164 158 153 145 139 140 127 117 105 107 100 104 85 59 65 64 54 38 57 92 85 61 41 44 56 343 338
267 281 285 278 273 272 258 269 232 193 186 186 185 185 183 178 167 160 165 167 170 168 163 159 156 150 149 143 143 143 148 153 158 141 134 117 82 82 72 58 53 79 86 81 43 49 23 29 338
274 294 284 273 270 273 262 261 233 180 180 179 173 172 167 161 158 155 164 164 164 159 158 163 158 154 153 150 152 158 153 147 145 130 137 145 120 98 78 64 56 74 88 82 66 53 17 17 355
267 271 269 259 261 261 249 241 234 176 166 159 159 157 157 153 153 153 160 155 155 148 149 159 158 154 154 155 157 165 158 155 151 145 152 154 149 168 153 101 90 91 110 95 78 83 30 10 358
242 257 257 230 220 239 226 225 182 100 96 132 138 143 144 145 148 152 155 154 155 151 153 158 155 154 160 165 168 175 170 176 167 159 170 169 160 177 204 174 167 158 137 120 99 93 111 28 12
235 241 257 276 272 284 252 216 135 117 106 104 114 122 133 140 144 149 153 157 155 153 158 168 165 162 168 179 179 177 174 176 172 175 173 176 168 178 192 178 174 165 139 134 136 98 108 75 334
245 248 263 284 292 286 244 167 142 133 127 128 131 131 131 132 138 143 144 152 156 159 164 170 170 170 173 185 188 183 177 180 175 178 175 170 174 183 179 184 176 172 146 147 153 174 172 343 316
240 264 275 260 279 278 270 233 178 159 155 147 136 133 134 132 137 142 145 150 157 163 168 174 176 178 179 183 192 192 187 187 181 186 185 175 177 173 189 195 182 174 168 169 148 200 252 196 266
223 236 248 258 255 275 291 326 80 136 136 135 134 125 121 130 138 140 145 149 151 153 163 175 181 179 183 189 193 190 192 189 181 190 181 168 170 179 196 193 187 184 183 176 168 199 206 218 228
232 242 244 251 265 269 275 286 86 105 110 109 110 111 110 116 127 131 132 138 148 157 164 172 178 180 182 186 189 189 185 179 185 195 180 173 180 192 196 191 198 201 193 185 184 208 220 221 230
Height
1482 1482 1483 1485 1486 1488 1489 1484 1480 1481 1482 1484 1484 1485 1490 1494 1499 1511 1511 1509 1509 1509 1508 1508 1508 1508 1508 1508 1508 1508 1508 1509 1509 1510 1510 1511 1511 1511 1511 1512 1512 1513 1514 1514 1514 1515 1515 1516 1517
1482 1483 1485 1485 1488 1494 1491 1483 1484 1483 1484 1486 1487 1489 1492 1498 1503 1507 1509 1510 1510 1510 1509 1509 1509 1509 1509 1509 1509 1510 1510 1510 1511 1511 1512 1512 1512 1512 1512 1512 1513 1514 1514 1515 1515 1515 1516 1517 1518
1482 1483 1485 1483 1485 1490 1491 1483 1483 1485 1486 1487 1489 1493 1497 1502 1505 1507 1509 1510 1510 1510 1510 1510 1510 1510 1510 1510 1510 1511 1511 1512 1512 1512 1513 1513 1513 1513 1513 1513 1514 1514 1515 1515 1516 1516 1517 1518 1518
1484 1485 1484 1484 1487 1482 1481 1483 1483 1485 1487 1488 1490 1496 1501 1505 1507 1508 1509 1511 1511 1511 1511 1511 1511 1511 1511 1511 1511 1512 1512 1513 1513 1514 1514 1514 1514 1514 1514 1515 1515 1516 1516 1516 1517 1517 1518 1518 1519
1484 1484 1485 1487 1486 1481 1480 1482 1484 1485 1488 1490 1493 1499 1504 1507 1508 1509 1510 1511 1511 1511 1511 1512 1512 1512 1512 1513 1513 1513 1514 1514 1514 1515 1515 1516 1516 1516 1516 1516 1516 1517 1517 1517 1518 1518 1519 1519 1520
1485 1482 1488 1491 1487 1483 1482 1483 1485 1487 1489 1492 1495 1499 1506 1508 1509 1510 1511 1512 1512 1512 1512 1513 1513 1513 1514 1514 1514 1514 1515 1515 1516 1516 1517 1517 1517 1517 1517 1517 1518 1518 1518 1519 1519 1519 1520 1520 1521
1485 1483 1486 1486 1487 1486 1485 1485 1487 1488 1490 1493 1496 1500 1506 1508 1509 1511 1512 1513 1513 1514 1514 1514 1514 1514 1515 1515 1516 1516 1516 1517 1517 1518 1518 1518 1518 1518 1519 1519 1519 1519 1520 1520 1520 1521 1521 1522 1522
1483 1483 1484 1485 1487 1488 1486 1487 1489 1490 1493 1495 1496 1499 1505 1508 1510 1511 1513 1514 1514 1515 1515 1515 1516 1516 1516 1517 1517 1518 1518 1518 1519 1519 1519 1520 1520 1520 1520 1520 1521 1521 1521 1521 1522 1522 1523 1523 1523
1483 1486 1488 1485 1487 1488 1486 1488 1491 1492 1494 1496 1497 1499 1503 1507 1509 1511 1513 1514 1515 1516 1516 1517 1517 1518 1518 1518 1519 1519 1519 1520 1520 1521 1521 1521 1521 1521 1521 1522 1522 1522 1523 1523 1523 1523 1524 1524 1525
1482 1488 1486 1481 1482 1485 1487 1489 1491 1493 1495 1497 1500 1502 1504 1507 1509 1511 1513 1514 1515 1516 1517 1518 1519 1519 1520 1520 1520 1521 1521 1521 1522 1522 1522 1523 1523 1523 1523 1523 1523 1523 1524 1524 1524 1525 1525 1525 1526
1481 1485 1483 1482 1483 1486 1488 1490 1491 1493 1496 1497 1500 1503 1505 1507 1510 1511 1513 1514 1515 1517 1518 1519 1520 1520 1521 1521 1522 1522 1522 1523 1523 1524 1524 1524 1524 1524 1524 1524 1524 1524 1525 1525 1526 1526 1526 1527 1527
1482 1483 1484 1485 1486 1488 1489 1491 1493 1494 1497 1498 1499 1502 1505 1507 1509 1511 1512 1514 1516 1517 1518 1519 1520 1521 1521 1522 1523 1523 1524 1524 1524 1525 1525 1525 1525 1525 1525 1525 1526 1526 1526 1526 1527 1527 1527 1528 1528
1482 1484 1485 1487 1488 1489 1490 1491 1493 1496 1497 1499 1500 1503 1505 1507 1509 1511 1513 1514 1516 1517 1518 1519 1520 1521 1522 1523 1523 1524 1525 1525 1525 1526 1526 1526 1526 1526 1526 1526 1527 1527 1527 1527 1528 1528 1528 1528 1529
1483 1484 1486 1487 1488 1489 1490 1491 1493 1496 1497 1499 1501 1503 1505 1507 1508 1510 1512 1514 1515 1516 1518 1519 1520 1521 1522 1523 1524 1524 1525 1526 1526 1526 1527 1527 1527 1527 1527 1527 1527 1527 1528 1528 1528 1528 1528 1529 1529
1483 1485 1485 1486 1487 1488 1491 1493 1492 1494 1496 1498 1501 1502 1504 1506 1508 1509 1511 1513 1514 1516 1517 1519 1520 1521 1522 1523 1524 1525 1525 1526 1526 1527 1527 1527 1527 1527 1527 1527 1528 1528 1528 1528 1528 1529 1529 1529 1530
1481 1485 1490 1486 1485 1487 1493 1497 1491 1493 1495 1497 1500 1502 1504 1506 1507 1509 1510 1512 1514 1515 1516 1518 1519 1521 1522 1523 1524 1524 1525 1526 1526 1527 1527 1527 1527 1528 1528 1528 1528 1529 1528 1529 1529 1529 1529 1529 1529
1483 1488 1489 1486 1483 1484 1488 1492 1490 1491 1493 1495 1498 1500 1502 1504 1506 1508 1509 1511 1512 1514 1515 1517 1519 1520 1521 1522 1524 1524 1525 1526 1526 1527 1527 1527 1528 1528 1528 1528 1528 1529 1529 1529 1529 1529 1529 1529 1529
1488 1486 1485 1486 1482 1482 1486 1488 1487 1489 1491 1493 1495 1497 1500 1501 1504 1506 1508 1509 1511 1513 1514 1516 1518 1519 1521 1522 1523 1524 1525 1525 1526 1526 1527 1527 1527 1528 1527 1528 1528 1528 1528 1529 1529 1529 1529 1529 1529
1480 1483 1484 1482 1478 1482 1485 1485 1484 1485 1488 1490 1492 1494 1496 1499 1502 1503 1506 1507 1509 1511 1513 1514 1516 1518 1519 1521 1522 1523 1524 1525 1525 1526 1526 1526 1527 1527 1527 1528 1528 1528 1528 1528 1528 1529 1529 1529 1529
1480 1484 1484 1480 1477 1480 1483 1482 1479 1480 1483 1486 1488 1490 1493 1496 1499 1501 1503 1505 1507 1509 1511 1513 1515 1516 1518 1520 1521 1522 1523 1524 1525 1525 1526 1526 1526 1527 1527 1527 1527 1528 1528 1528 1528 1528 1529 1529 1530
1480 1483 1483 1483 1480 1478 1481 1483 1477 1476 1478 1482 1485 1488 1490 1493 1496 1498 1501 1503 1505 1507 1509 1511 1513 1515 1517 1518 1520 1521 1522 1523 1524 1524 1525 1525 1526 1526 1526 1526 1527 1527 1527 1527 1528 1528 1528 1529 1529
1484 1478 1479 1481 1486 1488 1483 1493 1478 1473 1476 1478 1482 1485 1488 1491 1493 1495 1498 1501 1503 1505 1507 1510 1512 1513 1515 1517 1518 1519 1520 1521 1522 1523 1523 1524 1525 1525 1525 1526 1526 1526 1526 1527 1527 1527 1528 1528 1529
1479 1476 1478 1480 1484 1487 1482 1487 1479 1470 1475 1476 1478 1482 1485 1488 1491 1493 1496 1498 1501 1503 1506 1508 1510 1512 1513 1515 1516 1518 1519 1520 1521 1522 1522 1523 1523 1524 1524 1524 1525 1525 1525 1526 1526 1526 1527 1527 1528
1475 1478 1479 1479 1484 1494 1479 1482 1481 1471 1470 1472 1475 1479 1483 1486 1489 1492 1494 1497 1499 1502 1504 1506 1508 1510 1512 1513 1514 1516 1518 1519 1520 1520 1521 1521 1522 1522 1523 1523 1523 1524 1524 1524 1525 1525 1525 1526 1526
1477 1485 1496 1496 1497 1490 1468 1474 1477 1466 1465 1468 1473 1478 1481 1484 1487 1490 1492 1495 1497 1500 1502 1504 1507 1508 1510 1511 1513 1514 1516 1517 1518 1519 1519 1520 1520 1521 1521 1522 1522 1522 1523 1523 1523 1523 1524 1524 1525
1477 1481 1496 1501 1495 1483 1470 1476 1472 1464 1467 1470 1473 1477 1480 1483 1486 1488 1490 1492 1495 1497 1500 1502 1504 1506 1508 1509 1511 1512 1514 1515 1516 1517 1518 1519 1519 1519 1520 1520 1521 1521 1521 1521 1522 1522 1522 1523 1523
1477 1477 1474 1484 1483 1486 1476 1471 1468 1464 1468 1471 1474 1477 1480 1482 1485 1487 1489 1491 1493 1495 1498 1500 1502 1504 1506 1507 1509 1510 1512 1513 1514 1515 1516 1517 1517 1518 1518 1519 1519 1519 1520 1520 1520 1520 1521 1521 1522
1472 1473 1478 1484 1495 1495 1482 1474 1474 1469 1470 1471 1474 1477 1480 1482 1484 1486 1487 1489 1491 1493 1496 1498 1500 1502 1503 1505 1506 1508 1509 1511 1512 1513 1514 1514 1515 1516 1516 1517 1517 1517 1518 1518 1518 1519 1519 1520 1520
1472 1474 1476 1480 1482 1492 1494 1483 1462 1465 1466 1470 1473 1476 1479 1481 1483 1484 1486 1488 1490 1492 1494 1496 1498 1499 1501 1502 1504 1505 1507 1508 1509 1510 1511 1512 1513 1513 1514 1514 1515 1515 1516 1516 1516 1517 1517 1517 1517
1467 1470 1475 1487 1485 1481 1487 1484 1461 1463 1466 1469 1472 1476 1478 1480 1482 1483 1485 1486 1488 1490 1491 1493 1495 1497 1498 1499 1501 1502 1504 1505 1506 1507 1508 1509 1510 1510 1511 1512 1512 1513 1513 1514 1514 1514 1515 1515 1515